Time,TemperatureF,DewpointF,PressureIn,WindDirection,WindDirectionDegrees,WindSpeedMPH,WindSpeedGustMPH,Humidity,HourlyPrecipIn,Conditions,Clouds,dailyrainin,SoftwareType,DateUTC
2013-05-03 15:21:00,66.0,41.0,30.59,ESE,105,4.0,10.0,40,0.00,,,0.00,,2013-05-03 19:21:00,
2013-05-03 15:32:00,67.0,42.0,30.58,South,172,1.0,7.0,40,0.00,,,0.00,,2013-05-03 19:32:00,
2013-05-03 15:42:00,67.0,42.0,30.58,South,172,1.0,7.0,40,0.00,,,0.00,,2013-05-03 19:42:00,
2013-05-03 15:52:00,67.0,42.0,30.57,ENE,68,1.0,8.0,40,0.00,,,0.00,,2013-05-03 19:52:00,
2013-05-03 16:02:00,67.0,41.0,30.57,ESE,113,2.0,10.0,39,0.00,,,0.00,,2013-05-03 20:02:00,
2013-05-03 16:12:00,67.0,41.0,30.57,ESE,113,2.0,10.0,39,0.00,,,0.00,,2013-05-03 20:12:00,
2013-05-03 16:21:00,67.0,41.0,30.56,SE,125,6.0,9.0,38,0.00,,,0.00,,2013-05-03 20:21:00,
2013-05-03 16:32:00,67.0,41.0,30.55,West,267,5.0,12.0,39,0.00,,,0.00,,2013-05-03 20:32:00,
2013-05-03 16:42:00,67.0,41.0,30.55,West,267,5.0,12.0,39,0.00,,,0.00,,2013-05-03 20:42:00,
2013-05-03 16:52:00,67.0,42.0,30.55,WSW,252,4.0,11.0,40,0.00,,,0.00,,2013-05-03 20:52:00,
2013-05-03 17:01:00,67.0,42.0,30.55,SW,231,4.0,11.0,40,0.00,,,0.00,,2013-05-03 21:01:00,
2013-05-03 17:11:00,67.0,42.0,30.55,SW,231,4.0,11.0,40,0.00,,,0.00,,2013-05-03 21:11:00,
2013-05-03 17:22:00,68.0,42.0,30.55,South,179,4.0,8.0,39,0.00,,,0.00,,2013-05-03 21:22:00,
2013-05-03 17:33:00,67.0,42.0,30.55,SSE,158,4.0,8.0,40,0.00,,,0.00,,2013-05-03 21:33:00,
2013-05-03 17:42:00,67.0,42.0,30.55,SSE,158,4.0,8.0,40,0.00,,,0.00,,2013-05-03 21:42:00,
2013-05-03 17:53:00,67.0,43.0,30.55,SW,228,3.0,11.0,41,0.00,,,0.00,,2013-05-03 21:53:00,
2013-05-03 18:03:00,67.0,42.0,30.55,South,186,6.0,9.0,40,0.00,,,0.00,,2013-05-03 22:03:00,
2013-05-03 18:13:00,67.0,42.0,30.55,South,186,6.0,9.0,40,0.00,,,0.00,,2013-05-03 22:13:00,
2013-05-03 18:22:00,67.0,43.0,30.55,ESE,117,2.0,9.0,42,0.00,,,0.00,,2013-05-03 22:22:00,
2013-05-03 18:32:00,67.0,43.0,30.55,WSW,253,1.0,7.0,42,0.00,,,0.00,,2013-05-03 22:32:00,
2013-05-03 18:42:00,67.0,43.0,30.55,WSW,253,1.0,7.0,42,0.00,,,0.00,,2013-05-03 22:42:00,
2013-05-03 18:52:00,67.0,43.0,30.54,SE,138,0.0,7.0,41,0.00,,,0.00,,2013-05-03 22:52:00,
2013-05-03 19:02:00,67.0,43.0,30.55,SE,135,1.0,3.0,41,0.00,,,0.00,,2013-05-03 23:02:00,
2013-05-03 19:11:00,67.0,43.0,30.55,SE,135,1.0,3.0,41,0.00,,,0.00,,2013-05-03 23:11:00,
2013-05-03 19:22:00,67.0,43.0,30.54,SW,232,2.0,4.0,42,0.00,,,0.00,,2013-05-03 23:22:00,
2013-05-03 19:32:00,66.0,43.0,30.54,South,184,1.0,5.0,44,0.00,,,0.00,,2013-05-03 23:32:00,
2013-05-03 19:41:00,66.0,43.0,30.54,South,184,1.0,5.0,44,0.00,,,0.00,,2013-05-03 23:41:00,
2013-05-03 19:52:00,64.0,43.0,30.54,SW,217,0.0,1.0,47,0.00,,,0.00,,2013-05-03 23:52:00,
2013-05-03 20:01:00,60.0,44.0,30.55,ESE,115,0.0,1.0,56,0.00,,,0.00,,2013-05-04 00:01:00,
2013-05-03 20:11:00,60.0,44.0,30.55,ESE,115,0.0,1.0,56,0.00,,,0.00,,2013-05-04 00:11:00,
2013-05-03 20:23:00,58.0,45.0,30.55,ESE,115,0.0,1.0,62,0.00,,,0.00,,2013-05-04 00:23:00,
2013-05-03 20:32:00,56.0,44.0,30.55,ESE,114,0.0,0.0,65,0.00,,,0.00,,2013-05-04 00:32:00,
2013-05-03 20:42:00,56.0,44.0,30.55,ESE,114,0.0,0.0,65,0.00,,,0.00,,2013-05-04 00:42:00,
2013-05-03 20:52:00,55.0,45.0,30.56,ENE,70,0.0,1.0,69,0.00,,,0.00,,2013-05-04 00:52:00,
2013-05-03 21:01:00,54.0,44.0,30.57,NE,43,1.0,3.0,69,0.00,,,0.00,,2013-05-04 01:01:00,
2013-05-03 21:11:00,54.0,44.0,30.57,NE,43,1.0,3.0,69,0.00,,,0.00,,2013-05-04 01:11:00,
2013-05-03 21:21:00,53.0,44.0,30.56,ENE,67,0.0,2.0,71,0.00,,,0.00,,2013-05-04 01:21:00,
2013-05-03 21:32:00,52.0,44.0,30.57,ENE,71,0.0,1.0,73,0.00,,,0.00,,2013-05-04 01:32:00,
2013-05-03 21:42:00,52.0,44.0,30.57,ENE,71,0.0,1.0,73,0.00,,,0.00,,2013-05-04 01:42:00,
2013-05-03 21:52:00,52.0,44.0,30.57,ENE,61,0.0,2.0,73,0.00,,,0.00,,2013-05-04 01:52:00,
2013-05-03 22:02:00,51.0,43.0,30.57,ENE,77,0.0,2.0,74,0.00,,,0.00,,2013-05-04 02:02:00,
2013-05-03 22:11:00,51.0,43.0,30.57,ENE,77,0.0,2.0,74,0.00,,,0.00,,2013-05-04 02:11:00,
2013-05-03 22:21:00,51.0,43.0,30.57,ENE,58,0.0,2.0,75,0.00,,,0.00,,2013-05-04 02:21:00,
2013-05-03 22:32:00,49.0,42.0,30.56,NE,49,0.0,1.0,77,0.00,,,0.00,,2013-05-04 02:32:00,
2013-05-03 22:42:00,49.0,42.0,30.56,NE,49,0.0,1.0,77,0.00,,,0.00,,2013-05-04 02:42:00,
2013-05-03 22:52:00,49.0,42.0,30.56,NE,49,0.0,1.0,77,0.00,,,0.00,,2013-05-04 02:52:00,
2013-05-03 23:02:00,48.0,42.0,30.56,NE,50,0.0,1.0,79,0.00,,,0.00,,2013-05-04 03:02:00,
2013-05-03 23:11:00,48.0,42.0,30.56,NE,50,0.0,1.0,79,0.00,,,0.00,,2013-05-04 03:11:00,
2013-05-03 23:22:00,47.0,41.0,30.56,North,359,0.0,1.0,81,0.00,,,0.00,,2013-05-04 03:22:00,
2013-05-03 23:33:00,47.0,42.0,30.56,NE,36,0.0,0.0,83,0.00,,,0.00,,2013-05-04 03:33:00,
2013-05-03 23:43:00,47.0,42.0,30.56,NE,36,0.0,0.0,83,0.00,,,0.00,,2013-05-04 03:43:00,
2013-05-03 23:53:00,46.0,42.0,30.56,NE,36,0.0,1.0,85,0.00,,,0.00,,2013-05-04 03:53:00,